TimeCDT,TemperatureF,Dew PointF,Humidity,Sea Level PressureIn,VisibilityMPH,Wind Direction,Wind SpeedMPH,Gust SpeedMPH,PrecipitationIn,Events,Conditions,WindDirDegrees,DateUTC
12:12 AM,75.2,66.2,73,29.95,10.0,East,5.8,-,N/A,,Clear,90,2013-07-09 05:12:00
12:33 AM,75.2,68.0,78,29.95,10.0,East,4.6,-,N/A,,Clear,90,2013-07-09 05:33:00
12:52 AM,73.4,68.0,83,29.96,10.0,ENE,4.6,-,N/A,,Clear,70,2013-07-09 05:52:00
1:12 AM,73.4,68.0,83,29.95,10.0,East,4.6,-,N/A,,Clear,80,2013-07-09 06:12:00
1:33 AM,73.4,68.0,83,29.94,10.0,ENE,4.6,-,N/A,,Clear,70,2013-07-09 06:33:00
1:52 AM,75.2,68.0,78,29.94,10.0,ESE,5.8,-,N/A,,Clear,110,2013-07-09 06:52:00
2:12 AM,73.4,69.8,88,29.94,10.0,SE,5.8,-,N/A,,Clear,130,2013-07-09 07:12:00
2:33 AM,73.4,69.8,88,29.93,10.0,ESE,5.8,-,N/A,,Clear,120,2013-07-09 07:33:00
2:52 AM,73.4,69.8,88,29.92,10.0,SE,4.6,-,N/A,,Clear,140,2013-07-09 07:52:00
3:12 AM,73.4,69.8,88,29.90,10.0,SE,3.5,-,N/A,,Clear,140,2013-07-09 08:12:00
3:33 AM,73.4,69.8,88,29.88,10.0,SE,4.6,-,N/A,,Clear,130,2013-07-09 08:33:00
3:52 AM,75.2,69.8,83,29.87,10.0,SE,4.6,-,N/A,,Clear,130,2013-07-09 08:52:00
4:12 AM,73.4,69.8,88,29.88,10.0,SE,3.5,-,N/A,,Clear,130,2013-07-09 09:12:00
4:33 AM,73.4,69.8,88,29.90,10.0,SE,4.6,-,N/A,,Clear,140,2013-07-09 09:33:00
4:52 AM,73.4,69.8,88,29.90,10.0,SSE,3.5,-,N/A,,Clear,160,2013-07-09 09:52:00
5:12 AM,75.2,69.8,83,29.90,10.0,Calm,Calm,-,N/A,,Scattered Clouds,0,2013-07-09 10:12:00
5:33 AM,75.2,69.8,83,29.89,10.0,South,4.6,-,N/A,Thunderstorm,Thunderstorm,170,2013-07-09 10:33:00
5:52 AM,75.2,69.8,83,29.90,10.0,South,4.6,-,N/A,Rain-Thunderstorm,Light Thunderstorms and Rain,190,2013-07-09 10:52:00
6:12 AM,75.2,71.6,89,29.92,10.0,SW,9.2,-,N/A,,Mostly Cloudy,230,2013-07-09 11:12:00
6:33 AM,66.2,62.6,88,29.96,3.0,WNW,32.2,52.9,0.21,Rain-Thunderstorm,Heavy Thunderstorms and Rain,290,2013-07-09 11:33:00
6:52 AM,66.2,62.6,88,29.96,10.0,WNW,17.3,33.4,0.32,Rain-Thunderstorm,Heavy Thunderstorms and Rain,290,2013-07-09 11:52:00
7:12 AM,66.2,62.6,88,29.93,10.0,WNW,16.1,21.9,0.01,Rain-Thunderstorm,Light Thunderstorms and Rain,290,2013-07-09 12:12:00
7:32 AM,66.2,62.6,88,29.89,10.0,South,6.9,17.3,0.02,Rain,Light Rain,190,2013-07-09 12:32:00
7:52 AM,68.0,62.6,83,29.81,10.0,East,5.8,-,0.02,Rain,Light Rain,90,2013-07-09 12:52:00
8:13 AM,71.6,62.6,73,29.82,10.0,WSW,8.1,-,N/A,,Scattered Clouds,250,2013-07-09 13:13:00
8:32 AM,73.4,62.6,69,29.83,10.0,SW,9.2,-,N/A,,Clear,220,2013-07-09 13:32:00
8:52 AM,75.2,64.4,69,29.83,10.0,WSW,8.1,-,N/A,,Clear,240,2013-07-09 13:52:00
9:13 AM,75.2,64.4,69,29.84,10.0,SSW,9.2,-,N/A,,Clear,210,2013-07-09 14:13:00
9:33 AM,77.0,66.2,69,29.85,10.0,SSW,10.4,-,N/A,,Clear,210,2013-07-09 14:33:00
9:52 AM,78.8,66.2,65,29.86,10.0,SW,8.1,-,N/A,,Clear,220,2013-07-09 14:52:00
10:13 AM,80.6,68.0,65,29.87,10.0,SW,11.5,-,N/A,,Clear,230,2013-07-09 15:13:00
10:33 AM,80.6,69.8,70,29.89,10.0,WSW,15.0,-,N/A,,Clear,240,2013-07-09 15:33:00
10:52 AM,82.4,69.8,66,29.89,10.0,WSW,13.8,-,N/A,,Clear,240,2013-07-09 15:52:00
11:13 AM,84.2,69.8,62,29.90,10.0,WSW,15.0,-,N/A,,Clear,250,2013-07-09 16:13:00
11:33 AM,84.2,69.8,62,29.90,10.0,WSW,18.4,21.9,N/A,,Clear,250,2013-07-09 16:33:00
11:52 AM,84.2,69.8,62,29.91,10.0,West,18.4,-,N/A,,Clear,260,2013-07-09 16:52:00
12:13 PM,86.0,68.0,55,29.91,10.0,West,15.0,20.7,N/A,,Clear,260,2013-07-09 17:13:00
12:33 PM,86.0,66.2,51,29.91,10.0,West,18.4,23.0,N/A,,Clear,270,2013-07-09 17:33:00
12:52 PM,86.0,68.0,55,29.91,10.0,West,13.8,-,N/A,,Scattered Clouds,270,2013-07-09 17:52:00
1:13 PM,82.4,66.2,58,29.91,10.0,WNW,11.5,18.4,N/A,,Mostly Cloudy,300,2013-07-09 18:13:00
1:33 PM,84.2,66.2,55,29.91,10.0,NW,13.8,21.9,N/A,,Scattered Clouds,310,2013-07-09 18:33:00
1:52 PM,84.2,66.2,55,29.91,10.0,WNW,15.0,19.6,N/A,,Clear,290,2013-07-09 18:52:00
2:13 PM,84.2,66.2,55,29.91,10.0,West,17.3,-,N/A,,Clear,280,2013-07-09 19:13:00
2:33 PM,84.2,66.2,55,29.91,10.0,West,15.0,20.7,N/A,,Clear,280,2013-07-09 19:33:00
2:52 PM,84.2,66.2,55,29.92,10.0,West,13.8,-,N/A,,Clear,270,2013-07-09 19:52:00
3:12 PM,86.0,68.0,55,29.92,10.0,West,15.0,20.7,N/A,,Clear,280,2013-07-09 20:12:00
3:33 PM,86.0,66.2,51,29.92,10.0,WNW,13.8,21.9,N/A,,Clear,290,2013-07-09 20:33:00
3:52 PM,86.0,66.2,51,29.92,10.0,WNW,13.8,20.7,N/A,,Clear,300,2013-07-09 20:52:00
4:12 PM,86.0,66.2,51,29.93,10.0,WNW,12.7,21.9,N/A,,Clear,300,2013-07-09 21:12:00
4:33 PM,84.2,66.2,55,29.93,10.0,WNW,11.5,18.4,N/A,,Scattered Clouds,300,2013-07-09 21:33:00
4:52 PM,84.2,66.2,55,29.93,10.0,WNW,13.8,-,N/A,,Scattered Clouds,300,2013-07-09 21:52:00
5:12 PM,84.2,66.2,55,29.94,10.0,WNW,17.3,-,N/A,,Scattered Clouds,290,2013-07-09 22:12:00
5:33 PM,84.2,66.2,55,29.94,10.0,WNW,13.8,18.4,N/A,,Scattered Clouds,300,2013-07-09 22:33:00
5:52 PM,84.2,66.2,55,29.94,10.0,WNW,13.8,18.4,N/A,,Clear,300,2013-07-09 22:52:00
6:12 PM,82.4,66.2,58,29.94,10.0,NW,10.4,17.3,N/A,,Clear,310,2013-07-09 23:12:00
6:33 PM,82.4,66.2,58,29.94,10.0,NW,12.7,17.3,N/A,,Clear,310,2013-07-09 23:33:00
6:52 PM,82.4,66.2,58,29.94,10.0,WNW,11.5,-,N/A,,Clear,300,2013-07-09 23:52:00
7:13 PM,82.4,66.2,58,29.94,10.0,WNW,11.5,-,N/A,,Clear,300,2013-07-10 00:13:00
7:32 PM,82.4,66.2,58,29.94,10.0,NW,9.2,-,N/A,,Clear,310,2013-07-10 00:32:00
7:52 PM,80.6,64.4,58,29.95,10.0,NW,4.6,-,N/A,,Clear,320,2013-07-10 00:52:00
8:13 PM,80.6,66.2,61,29.95,10.0,NW,6.9,-,N/A,,Clear,320,2013-07-10 01:13:00
8:32 PM,77.0,66.2,69,29.95,10.0,Calm,Calm,-,N/A,,Clear,0,2013-07-10 01:32:00
8:52 PM,77.0,66.2,69,29.96,10.0,Calm,Calm,-,N/A,,Clear,0,2013-07-10 01:52:00
9:13 PM,75.2,66.2,73,29.96,10.0,Calm,Calm,-,N/A,,Clear,0,2013-07-10 02:13:00
9:32 PM,73.4,66.2,78,29.97,10.0,Calm,Calm,-,N/A,,Clear,0,2013-07-10 02:32:00
9:52 PM,73.4,66.2,78,29.98,10.0,Calm,Calm,-,N/A,,Clear,0,2013-07-10 02:52:00
10:13 PM,73.4,66.2,78,29.98,10.0,Calm,Calm,-,N/A,,Scattered Clouds,0,2013-07-10 03:13:00
10:32 PM,73.4,66.2,78,29.99,10.0,Calm,Calm,-,N/A,,Scattered Clouds,0,2013-07-10 03:32:00
10:52 PM,71.6,66.2,83,30.00,10.0,Calm,Calm,-,N/A,,Clear,0,2013-07-10 03:52:00
11:12 PM,71.6,66.2,83,30.00,10.0,Calm,Calm,-,N/A,,Clear,0,2013-07-10 04:12:00
11:32 PM,71.6,64.4,78,30.00,10.0,NNW,12.7,16.1,N/A,,Clear,330,2013-07-10 04:32:00
11:53 PM,71.6,66.2,83,30.01,10.0,Calm,Calm,-,N/A,,Clear,0,2013-07-10 04:53:00